Bookmark and Share
Track history (hours):
 

Rosaria Lauro

Last reported at 2014-Apr-18 16:33 UTC. Time now 2014-Apr-19 00:03 UTC.
Position N 40°45' E 013°56'.

Length 40 m.

MMSI: 247055900.

NotesDate/timePositionNaut miles runAvg speedWind from/ knotsBaromVisibWave heightAir tempDewpointWater temp
2014-Apr-18 16:33N 40°45' E 013°56'1611.2
2014-Apr-18 15:07N 40°50' E 014°16'1424.4
2014-Apr-18 14:34N 40°44' E 013°60'3 2.8
2014-Apr-18 13:33N 40°45' E 013°56'1610.9
2014-Apr-18 12:05N 40°50' E 014°16'1223.0
2014-Apr-18 11:33N 40°44' E 014°02'8 7.8
2014-Apr-18 10:34N 40°44' E 013°52'9 8.7
2014-Apr-18 09:34N 40°46' E 014°03'11 9.4
2014-Apr-18 08:22N 40°50' E 014°17'1620.0
2014-Apr-18 07:33N 40°45' E 013°56'1211.5
2014-Apr-18 06:33N 40°47' E 014°11'15 1.1
2014-Apr-17 16:32N 40°44' E 013°52'2018.8
2014-Apr-17 15:30N 40°49' E 014°17'1010.5
2014-Apr-17 14:34N 40°46' E 014°04'6 6.0
2014-Apr-17 13:33N 40°45' E 013°56'1611.1
2014-Apr-17 12:07N 40°50' E 014°16'1323.0
2014-Apr-17 11:34N 40°46' E 014°00'7 6.9
2014-Apr-17 10:33N 40°44' E 013°52'7 7.4
2014-Apr-17 09:34N 40°46' E 014°01'1210.7
2014-Apr-17 08:24N 40°50' E 014°17'1619.2
2014-Apr-17 07:33N 40°45' E 013°56'1111.4
2014-Apr-17 06:33N 40°47' E 014°11'3 2.7
2014-Apr-17 05:33N 40°46' E 014°08'1211.8
2014-Apr-17 04:34N 40°46' E 013°52'3 0.3
2014-Apr-16 17:12N 40°45' E 013°56'0 0.0
2014-Apr-16 16:34N 40°45' E 013°56'1610.8
2014-Apr-16 15:05N 40°50' E 014°16'1121.4
2014-Apr-16 14:34N 40°47' E 014°02'4 4.4
2014-Apr-16 13:33N 40°45' E 013°57'1611.3
2014-Apr-16 12:08N 40°50' E 014°17'1323.0
2014-Apr-16 11:34N 40°47' E 013°60'7 6.7
2014-Apr-16 10:33N 40°44' E 013°52'6 5.9
2014-Apr-16 09:34N 40°46' E 013°59'1411.9
2014-Apr-16 08:23N 40°50' E 014°17'1619.7
2014-Apr-16 07:34N 40°45' E 013°56'1111.4
2014-Apr-16 06:34N 40°47' E 014°11'5 5.3
2014-Apr-16 05:34N 40°46' E 014°04'1 0.1
2014-Apr-15 10:34N 40°46' E 014°02'1110.3
2014-Apr-15 09:29N 40°50' E 014°16'1617.2
2014-Apr-15 08:34N 40°45' E 013°56'0 0.0
2014-Apr-15 07:34N 40°45' E 013°56'0 0.1
2014-Apr-15 05:34N 40°45' E 013°56'0 0.1
2014-Apr-15 03:34N 40°45' E 013°56'4 0.3
2014-Apr-14 15:34N 40°45' E 013°52'1918.4
2014-Apr-14 14:31N 40°49' E 014°16'1010.5
2014-Apr-14 13:34N 40°46' E 014°03'1 0.3
2014-Apr-14 10:34N 40°46' E 014°02'8 8.1
2014-Apr-14 09:33N 40°44' E 013°52'5 5.0
2014-Apr-14 08:34N 40°46' E 013°58'1 0.7
2014-Apr-14 06:34N 40°45' E 013°56'1211.7
2014-Apr-14 05:33N 40°47' E 014°12'15 1.2
2014-Apr-13 16:33N 40°45' E 013°52'1817.3
2014-Apr-13 15:33N 40°48' E 014°14'8 7.9
2014-Apr-13 14:34N 40°46' E 014°04'7 7.0
2014-Apr-13 13:34N 40°45' E 013°55'6 2.8
2014-Apr-13 11:34N 40°46' E 014°02'9 8.6
2014-Apr-13 10:33N 40°44' E 013°52'4 4.3
2014-Apr-13 09:33N 40°45' E 013°57'1613.4
2014-Apr-13 08:23N 40°50' E 014°17'1619.6
2014-Apr-13 07:33N 40°45' E 013°56'4 3.7
2014-Apr-13 06:33N 40°44' E 013°52'0 0.0
2014-Apr-12 16:33N 40°44' E 013°52'2019.1
2014-Apr-12 15:31N 40°49' E 014°17'1212.8
2014-Apr-12 14:33N 40°46' E 014°01'4 3.8
2014-Apr-12 13:33N 40°45' E 013°56'1511.3
2014-Apr-12 12:11N 40°50' E 014°15'1219.3
2014-Apr-12 11:34N 40°46' E 014°00'7 7.0
2014-Apr-12 10:33N 40°44' E 013°52'6 6.0
2014-Apr-12 09:34N 40°46' E 013°59'1410.9
2014-Apr-12 08:18N 40°50' E 014°17'1621.9
2014-Apr-12 07:33N 40°45' E 013°56'1211.7
2014-Apr-12 06:33N 40°47' E 014°11'2 1.7
2014-Apr-12 05:34N 40°47' E 014°09'1413.5
2014-Apr-12 04:33N 40°44' E 013°52'0 0.0
2014-Apr-11 16:34N 40°45' E 013°52'2019.2
2014-Apr-11 15:32N 40°49' E 014°17'1010.7
2014-Apr-11 14:34N 40°46' E 014°03'9 9.2
2014-Apr-11 13:33N 40°45' E 013°52'20 3.9
2014-Apr-11 08:31N 40°50' E 014°17'2 0.1
2014-Apr-09 12:20N 40°50' E 014°13'0 0.0
2014-Apr-09 11:33N 40°50' E 014°13'  

Dump ship's entire track history

sailing weather and tide predictions

Rosaria Lauro — IXXO — position and weather